9Z4CT-3 Weather Reports


Display with metric or nautical units.
time (UTC)temp
F
wind
direction
speed
MPH
gust
MPH
rain 1hr
in
rain 24hr
in
rain mn
in
humidity
%
barometer
mb
20260507185315 93 134 2.0 7.0 0.00 0.00 0.00 58 1011.8
20260507184317 93 134 2.0 7.0 0.00 0.00 0.00 59 1012.0
20260507183319 93 130 2.0 8.0 0.00 0.00 0.00 60 1012.0
20260507182343 93 150 2.0 8.0 0.00 0.00 0.00 61 1012.1
20260507181323 92 184 1.0 4.0 0.00 0.00 0.00 59 1012.2
20260507180324 93 207 1.0 9.0 0.00 0.00 0.00 59 1012.2
20260507175320 93 158 2.0 9.0 0.00 0.00 0.00 58 1012.4
20260507174320 93 135 4.0 9.0 0.00 0.00 0.00 59 1012.5
20260507173343 92 196 2.0 7.0 0.00 0.00 0.00 59 1012.7
20260507172322 93 139 2.0 7.0 0.00 0.00 0.00 60 1012.9
20260507171326 92 106 4.0 10.0 0.00 0.00 0.00 60 1013.1
20260507170329 93 91 0.0 11.0 0.00 0.00 0.00 59 1013.2
20260507165327 93 54 3.0 10.0 0.00 0.00 0.00 59 1013.5
20260507164329 92 123 1.0 18.0 0.00 0.00 0.00 60 1013.5
20260507163326 92 154 3.0 8.0 0.00 0.00 0.00 59 1013.8
20260507162329 92 47 2.0 8.0 0.00 0.00 0.00 59 1013.8
20260507161353 92 121 4.0 10.0 0.00 0.00 0.00 60 1013.9
20260507160315 92 81 4.0 10.0 0.00 0.00 0.00 61 1014.0
20260507155330 91 110 3.0 7.0 0.00 0.00 0.00 62 1014.1
20260507154330 90 104 2.0 5.0 0.00 0.00 0.00 62 1014.3
20260507153312 90 184 2.0 11.0 0.00 0.00 0.00 62 1014.3
20260507152312 90 163 3.0 10.0 0.00 0.00 0.00 63 1014.4
20260507151314 89 126 1.0 10.0 0.00 0.00 0.00 65 1014.4
20260507150315 89 192 3.0 9.0 0.00 0.00 0.00 66 1014.5
20260507145330 89 164 1.0 11.0 0.00 0.00 0.00 67 1014.6
20260507144313 88 117 3.0 10.0 0.00 0.00 0.00 66 1014.7
20260507143316 88 144 1.0 3.0 0.00 0.00 0.00 67 1014.8
20260507142321 88 141 0.0 7.0 0.00 0.00 0.00 68 1014.8
20260507141322 87 185 1.0 7.0 0.00 0.00 0.00 69 1014.9
20260507140323 87 139 1.0 7.0 0.00 0.00 0.00 70 1015.0
20260507135344 87 105 2.0 9.0 0.00 0.00 0.00 70 1015.0
20260507134322 86 136 4.0 12.0 0.00 0.00 0.00 70 1015.0
20260507133344 86 108 3.0 10.0 0.00 0.00 0.00 72 1015.0
20260507132325 85 42 2.0 8.0 0.00 0.00 0.00 73 1015.1
20260507131327 85 126 4.0 9.0 0.00 0.00 0.00 74 1015.2
20260507130329 84 92 4.0 8.0 0.00 0.00 0.00 76 1015.0
20260507125329 84 112 2.0 11.0 0.00 0.00 0.00 78 1015.0
20260507124327 83 104 4.0 10.0 0.00 0.00 0.00 81 1015.0
20260507123330 82 110 2.0 10.0 0.00 0.00 0.00 83 1015.0
20260507122313 81 126 3.0 11.0 0.00 0.00 0.00 85 1015.0
20260507121315 81 51 2.0 12.0 0.00 0.00 0.00 87 1014.9
20260507120315 80 125 3.0 9.0 0.00 0.00 0.00 88 1014.9
20260507115334 79 150 2.0 9.0 0.00 0.00 0.00 89 1014.8
20260507114316 79 87 3.0 8.0 0.00 0.00 0.00 89 1014.8
20260507113320 78 117 1.0 5.0 0.00 0.00 0.00 90 1014.8
20260507112322 77 125 1.0 3.0 0.00 0.00 0.00 90 1014.8
20260507111322 76 126 0.0 2.0 0.00 0.00 0.00 90 1014.7
20260507110320 76 126 1.0 4.0 0.00 0.00 0.00 90 1014.6
20260507105318 75 102 2.0 3.0 0.00 0.00 0.00 90 1014.5
20260507104319 75 72 0.0 1.0 0.00 0.00 0.00 90 1014.6
20260507103321 74 72 0.0 1.0 0.00 0.00 0.00 89 1014.5
20260507102322 74 72 0.0 0.0 0.00 0.00 0.00 89 1014.6
20260507101343 74 72 0.0 0.0 0.00 0.00 0.00 89 1014.6
20260507100327 74 73 0.0 0.0 0.00 0.00 0.00 89 1014.5
20260507095343 74 73 0.0 0.0 0.00 0.00 0.00 89 1014.5
20260507094328 74 73 0.0 0.0 0.00 0.00 0.00 89 1014.4
20260507093316 74 73 0.0 0.0 0.00 0.00 0.00 89 1014.4
20260507092334 74 73 0.0 0.0 0.00 0.00 0.00 89 1014.4
20260507091316 74 73 0.0 0.0 0.00 0.00 0.00 89 1014.3
20260507090321 74 73 0.0 0.0 0.00 0.00 0.00 89 1014.1
20260507085335 74 73 0.0 0.0 0.00 0.00 0.00 89 1014.1
20260507084316 74 73 0.0 0.0 0.00 0.00 0.00 89 1014.1
20260507083338 74 73 0.0 0.0 0.00 0.00 0.00 89 1014.0
20260507082321 74 73 0.0 0.0 0.00 0.00 0.00 89 1014.1
20260507081345 74 73 0.0 0.0 0.00 0.00 0.00 89 1014.0
20260507080330 74 73 0.0 0.0 0.00 0.00 0.00 89 1014.0
20260507075326 74 73 0.0 0.0 0.00 0.00 0.00 89 1013.9
20260507074325 74 73 0.0 0.0 0.00 0.00 0.00 88 1013.8
20260507073325 74 73 0.0 0.0 0.00 0.00 0.00 88 1013.8
20260507072329 74 73 0.0 0.0 0.00 0.00 0.00 88 1013.9
20260507071333 74 73 0.0 0.0 0.00 0.08 0.00 88 1013.9
20260507070316 74 73 0.0 0.0 0.00 0.08 0.00 88 1013.9
20260507065315 74 73 0.0 0.0 0.00 0.08 0.00 88 1013.9
20260507064315 74 73 0.0 0.0 0.00 0.08 0.00 88 1014.0
20260507063319 74 73 0.0 0.0 0.00 0.08 0.00 88 1014.1
20260507062321 74 73 0.0 0.0 0.00 0.08 0.00 88 1014.1
20260507061347 75 73 0.0 1.0 0.00 0.08 0.00 88 1014.1
20260507060348 75 73 0.0 1.0 0.00 0.08 0.00 88 1014.1
20260507055326 74 71 0.0 1.0 0.00 0.08 0.00 87 1014.2
20260507054320 75 71 0.0 0.0 0.00 0.08 0.00 87 1014.3
20260507053340 75 71 0.0 3.0 0.00 0.08 0.00 87 1014.4
20260507052344 75 71 0.0 3.0 0.00 0.08 0.00 87 1014.5
20260507051323 75 78 0.0 0.0 0.00 0.08 0.00 87 1014.7
20260507050327 75 78 0.0 0.0 0.00 0.08 0.00 87 1014.8
20260507045326 75 78 0.0 0.0 0.00 0.08 0.00 87 1014.8
20260507044352 75 78 0.0 1.0 0.00 0.08 0.00 87 1014.9
20260507043315 75 78 0.0 1.0 0.00 0.08 0.00 87 1015.1
20260507042336 76 78 0.0 1.0 0.00 0.08 0.00 87 1015.3
20260507041316 76 78 0.0 2.0 0.00 0.08 0.02 87 1015.4
20260507040320 76 78 0.0 2.0 0.00 0.08 0.02 87 1015.3
20260507035342 76 71 0.0 2.0 0.00 0.08 0.02 87 1015.4
20260507034322 76 71 1.0 2.0 0.00 0.08 0.02 86 1015.5
20260507033317 76 70 1.0 2.0 0.00 0.08 0.02 86 1015.6
20260507032339 76 69 0.0 0.0 0.00 0.08 0.02 86 1015.7
20260507031317 76 69 0.0 0.0 0.00 0.08 0.02 86 1015.7
20260507030334 76 69 0.0 0.0 0.00 0.08 0.02 86 1015.7
20260507025352 76 69 0.0 0.0 0.00 0.08 0.02 85 1015.7
20260507024352 77 69 0.0 0.0 0.00 0.08 0.02 85 1015.6
20260507023332 77 69 0.0 0.0 0.00 0.08 0.02 85 1015.7
20260507022313 77 69 0.0 1.0 0.00 0.08 0.02 85 1015.6
20260507021314 77 69 0.0 2.0 0.00 0.08 0.02 85 1015.7
20260507020318 77 69 0.0 2.0 0.00 0.08 0.02 85 1015.8
20260507015335 77 69 2.0 4.0 0.00 0.08 0.02 84 1015.8
20260507014315 77 106 0.0 0.0 0.00 0.08 0.02 84 1015.8
20260507013319 77 106 0.0 3.0 0.00 0.08 0.02 84 1015.7
20260507012319 78 105 1.0 4.0 0.00 0.08 0.02 84 1015.6
20260507011340 78 106 1.0 3.0 0.00 0.08 0.02 83 1015.5
20260507010333 78 116 1.0 3.0 0.00 0.08 0.02 83 1015.4
20260507005359 78 117 1.0 3.0 0.00 0.08 0.02 83 1015.2
20260507004313 78 121 1.0 4.0 0.00 0.08 0.02 83 1015.2
20260507003327 78 109 0.0 3.0 0.00 0.08 0.02 82 1014.9
20260507002326 79 100 1.0 3.0 0.00 0.08 0.02 82 1014.9
20260507001330 79 100 2.0 6.0 0.00 0.08 0.02 82 1014.8
20260507000350 79 109 1.0 4.0 0.00 0.08 0.02 81 1014.8
20260506235327 79 127 1.0 4.0 0.00 0.08 0.02 81 1014.7
20260506234328 79 128 1.0 3.0 0.00 0.08 0.02 80 1014.6
20260506233330 80 127 2.0 4.0 0.00 0.08 0.02 80 1014.5
20260506232330 80 113 2.0 3.0 0.00 0.08 0.02 79 1014.3
20260506231329 80 110 1.0 3.0 0.00 0.08 0.02 79 1014.2
20260506230330 81 121 1.0 3.0 0.00 0.08 0.02 78 1014.2
20260506225328 81 138 1.0 2.0 0.00 0.08 0.02 77 1014.2
20260506224326 82 138 1.0 3.0 0.00 0.08 0.02 76 1014.1
20260506223325 82 134 1.0 3.0 0.00 0.08 0.02 75 1014.1
20260506222328 83 127 0.0 3.0 0.00 0.08 0.02 74 1014.0
20260506221330 83 101 1.0 5.0 0.00 0.08 0.02 73 1014.0
20260506220328 84 132 0.0 3.0 0.00 0.08 0.02 72 1013.9
20260506215348 84 127 1.0 7.0 0.00 0.08 0.02 71 1013.8
20260506214351 85 114 1.0 7.0 0.00 0.08 0.02 70 1013.7
20260506213312 85 99 1.0 7.0 0.00 0.08 0.02 68 1013.7
20260506212332 86 82 1.0 10.0 0.00 0.08 0.02 67 1013.5
20260506211314 86 123 3.0 9.0 0.00 0.08 0.02 66 1013.4
20260506210315 87 178 1.0 8.0 0.00 0.08 0.02 64 1013.3
20260506205316 88 117 3.0 9.0 0.00 0.08 0.02 64 1013.2
20260506204336 89 135 2.0 11.0 0.00 0.08 0.02 64 1013.1
20260506203344 89 122 3.0 10.0 0.00 0.08 0.02 62 1013.2
20260506202325 90 127 2.0 10.0 0.00 0.08 0.02 62 1013.1
20260506201326 90 197 2.0 10.0 0.00 0.08 0.02 60 1013.1
20260506200322 90 178 3.0 7.0 0.00 0.08 0.02 61 1012.9
20260506195317 90 109 3.0 7.0 0.00 0.08 0.02 60 1012.9
20260506194317 91 134 1.0 13.0 0.00 0.08 0.02 61 1013.0
20260506193318 91 177 1.0 4.0 0.00 0.08 0.02 60 1013.1
20260506192337 91 146 1.0 11.0 0.00 0.08 0.02 60 1013.2
20260506191320 92 142 3.0 9.0 0.00 0.08 0.02 57 1013.2
20260506190320 92 133 2.0 6.0 0.00 0.08 0.02 57 1013.2